Weather in Slobozhanske

Ukraine / Dnipropetrovsk Region     48°32′01″N   35°04′40″E
temp.,
°C
wind,
m/s
gust,
m/s
humid.,
%
clouds,
%
prec.,
mm/h
press.,
hPa
HPBL,
m
20 september, mon
mon2000:00+17w255751 0.0 1008265
03:00+15wnw4772100 0.1 1009550
06:00+13w576880 0.0 1009626
09:00+13w585371 0.0 1010738
12:00+13wsw7105113 0.0 10111220
15:00+16w684198 0.0 10111824
18:00+15w574670 0.0 10121581
21:00+13wnw4657100 0.0 1013949
21 september, tue
tue2100:00+12wnw456989 0.0 1013597
03:00+11w3573100 0.0 1014471
06:00+11wsw3473100 0.0 1014613
09:00+11w5670100 0.0 1014849
12:00+12wnw6666100 0.3 10141274
15:00+10wnw4667100 0.6 1015906
18:00+10w4655100 0.1 1015986
21:00+9wnw465998 0.1 1015916
22 september, wed
wed2200:00+8wnw4673100 0.0 1015712
03:00+8w5778100 0.0 1015857
06:00+7wnw4681100 0.0 1015695
09:00+8w4580100 0.1 1015778
12:00+8w4573100 0.1 10151018
15:00+8w3473100 0.1 1015978
18:00+9w2369100 0.0 1015565
21:00+9wnw1273100 0.1 1015376
23 september, thu
thu2300:00+8wnw2273100 0.1 1015399
03:00+8w2272100 0.1 1014393
06:00+8wnw1272100 0.0 1014393
09:00+9w126499 0.0 1014798
12:00+10wnw226295 0.0 1014950
15:00+11w235188 0.1 10141370
18:00+10nw3356100 0.1 1014862
21:00+9nw3467100 0.1 1014465
24 september, fri
fri2400:00+8nnw237163 0.0 1014326
03:00+6nw12815 0.0 1014145
06:00+6sw018222 0.0 101485
09:00+10sw34655 0.0 1013551
12:00+14sw673979 0.0 10121499
15:00+15sw7940100 0.0 10101429
18:00+14wsw71354100 0.1 10091468
21:00+12sw81572100 1.3 10091019